Location: Oberwangen
(47.4286°N, 8.9679°E)
Time: 15:37:14
(UTC+00:00)

Cosmos 1315 Rocket - Pass Details

Date: 20 June 2021
Orbit: 528 x 568 km, 81.2° (Epoch: 03 August)

Event Time Altitude Azimuth Distance (km) Brightness Sun altitude
Rises 19:59:04 0° 342° (NNW) 2,782 7.7 -5.3°
Reaches altitude 10° 20:01:20 10° 336° (NNW) 1,878 6.9 -5.5°
Maximum altitude 20:05:16 43° 265° (W) 810 4.1 -6.0°
Drops below altitude 10° 20:09:08 10° 194° (SSW) 1,851 5.2 -6.5°
Sets 20:11:21 0° 188° (S) 2,736 6.0 -6.7°
